Weather History for Charlevoix, MI

Change the Weather History Date:

Sunday, September 15, 2013

  Actual Average Record
Temperature  
Mean Temperature 56 °F -  
Max Temperature 60 °F 69 °F 84 °F (2004)
Min Temperature 53 °F 57 °F 44 °F (2007)
Degree Days  
Heating Degree Days 8    
Growing Degree Days 6 (Base 50)    
Moisture  
Dew Point 54 °F    
Average Humidity 90    
Maximum Humidity 100    
Minimum Humidity 74    
Precipitation  
Precipitation 0.00 in - - ()
Sea Level Pressure  
Sea Level Pressure 30.07 in    
Wind  
Wind Speed 8 mph (West)    
Max Wind Speed 20 mph    
Max Gust Speed 29 mph    
Visibility 9 miles    
Events Rain    
Averages and records for this station are not official NWS values.
T = Trace of Precipitation, MM = Missing Value Source: NWS Daily Summary

Daily Weather History Graph

Daily Weather History Graph

Search for Another Location

Airport:

Trip Planner

Search our weather history database for the weather conditions in past years. The results will help you decide how hot, cold, wet, or windy it might be!

Date:

Astronomy

Sep. 15, 2013 Rise Set
Actual Time 7:19 AM EDT 7:51 PM EDT
Civil Twilight 6:50 AM EDT 8:21 PM EDT
Nautical Twilight 6:15 AM EDT 8:56 PM EDT
Astronomical Twilight 5:38 AM EDT 9:32 PM EDT
Moon 5:26 PM EDT (9/15) 2:47 AM EDT (9/15)
Length of Visible Light 13h 30m
Length of Day
12h 31m
Waxing Gibbous, 82% of the Moon is Illuminated
Sep 15
Waxing Gibbous
Sep 19
Full
Sep 26
Last Quarter
Oct 4
New
Oct 11
First Quarter

Hourly Weather History & Observations

Time (EDT) Temp. Dew Point Humidity Pressure Visibility Wind Dir Wind Speed Gust Speed Precip Events Conditions
12:14 AM 59.4 °F 52.2 °F 77% 30.02 in 10.0 mi SSW 8.1 mph - N/A   Clear
12:34 AM 59.4 °F 52.7 °F 79% 30.02 in 10.0 mi SSW 10.4 mph 16.1 mph N/A   Clear
12:55 AM 59.4 °F 52.7 °F 79% 30.02 in 10.0 mi SSW 8.1 mph - N/A   Clear
1:14 AM 59.5 °F 53.2 °F 80% 30.02 in 10.0 mi SSW 9.2 mph - N/A   Clear
1:35 AM 59.7 °F 53.6 °F 80% 30.01 in 10.0 mi SSW 6.9 mph - N/A   Clear
1:55 AM 59.7 °F 53.8 °F 81% 30.02 in 10.0 mi SSW 10.4 mph - N/A   Clear
2:14 AM 59.9 °F 54.5 °F 82% 30.01 in 10.0 mi SSW 6.9 mph - N/A   Clear
2:35 AM 60.1 °F 54.5 °F 82% 30.01 in 10.0 mi SSW 10.4 mph - N/A   Clear
2:55 AM 60.1 °F 54.7 °F 82% 30.01 in 10.0 mi SSW 8.1 mph - N/A   Clear
3:14 AM 60.3 °F 55.0 °F 83% 30.01 in 10.0 mi SSW 9.2 mph - N/A   Scattered Clouds
3:35 AM 59.7 °F 54.7 °F 83% 30.00 in 10.0 mi South 8.1 mph - N/A   Mostly Cloudy
3:55 AM 59.0 °F 54.1 °F 84% 30.01 in 10.0 mi SSW 8.1 mph - N/A   Overcast
4:14 AM 59.2 °F 54.3 °F 84% 30.01 in 10.0 mi SSW 8.1 mph - N/A   Overcast
4:35 AM 59.2 °F 54.1 °F 83% 30.01 in 10.0 mi South 8.1 mph - N/A   Overcast
4:54 AM 60.1 °F 54.5 °F 82% 30.01 in 10.0 mi SSW 6.9 mph - N/A   Overcast
5:15 AM 59.9 °F 54.5 °F 82% 30.02 in 10.0 mi SW 5.8 mph - N/A   Overcast
5:35 AM 59.0 °F 54.9 °F 86% 30.02 in 10.0 mi SW 4.6 mph - N/A   Drizzle
5:54 AM 59.0 °F 55.4 °F 88% 30.03 in 10.0 mi SW 6.9 mph - N/A Rain Light Rain
6:15 AM 59.5 °F 56.8 °F 91% 30.03 in 10.0 mi WNW 6.9 mph - N/A Rain Light Rain
6:35 AM 59.0 °F 55.8 °F 89% 30.03 in 10.0 mi West 3.5 mph - N/A Rain Light Rain
6:54 AM 57.9 °F 56.5 °F 95% 30.03 in 10.0 mi SSE 6.9 mph - N/A   Light Drizzle
7:15 AM 57.4 °F 56.7 °F 97% 30.02 in 10.0 mi SSE 4.6 mph - N/A   Overcast
7:34 AM 57.2 °F 56.7 °F 98% 30.02 in 10.0 mi South 4.6 mph - N/A   Overcast
7:55 AM 57.6 °F 57.2 °F 99% 30.02 in 10.0 mi Calm Calm - N/A Rain Light Rain
8:15 AM 57.6 °F 57.0 °F 98% 30.04 in 7.0 mi South 3.5 mph - N/A Rain Light Rain
8:34 AM 57.4 °F 56.8 °F 98% 30.02 in 10.0 mi Calm Calm - N/A   Overcast
8:55 AM 57.6 °F 57.2 °F 99% 30.02 in 10.0 mi East 3.5 mph - N/A   Overcast
9:15 AM 57.4 °F 56.8 °F 98% 30.02 in 10.0 mi East 3.5 mph - N/A   Overcast
9:34 AM 57.4 °F 57.2 °F 99% 30.03 in 10.0 mi Calm Calm - N/A Rain Light Rain
9:55 AM 57.2 °F 57.0 °F 99% 30.04 in 10.0 mi Calm Calm - N/A Rain Light Rain
10:15 AM 57.6 °F 57.2 °F 99% 30.04 in 10.0 mi SSE 3.5 mph - N/A Rain Light Rain
10:34 AM 57.2 °F 57.2 °F 100% 30.04 in 10.0 mi ESE 3.5 mph - N/A Rain Light Rain
10:55 AM 57.4 °F 57.4 °F 100% 30.04 in 2.5 mi Calm Calm - N/A Rain Rain
11:15 AM 57.6 °F 57.6 °F 100% 30.05 in 5.0 mi Calm Calm - N/A Rain Rain
11:34 AM 57.7 °F 57.7 °F 100% 30.05 in 5.0 mi Calm Calm - N/A Rain Rain
11:55 AM 57.6 °F 57.2 °F 99% 30.06 in 4.0 mi Calm Calm - N/A Rain Rain
12:15 PM 57.2 °F 56.7 °F 98% 30.06 in 1.8 mi NE 3.5 mph - N/A Rain Rain
12:34 PM 57.6 °F 57.2 °F 99% 30.06 in 3.0 mi Calm Calm - N/A Rain Rain
12:55 PM 57.6 °F 57.4 °F 99% 30.06 in 4.0 mi West 4.6 mph - N/A Rain Heavy Rain
1:14 PM 57.9 °F 57.7 °F 99% 30.06 in 10.0 mi West 3.5 mph - N/A Rain Light Rain
1:35 PM 58.5 °F 57.7 °F 97% 30.05 in 10.0 mi Calm Calm - N/A   Overcast
1:55 PM 59.0 °F 57.4 °F 94% 30.06 in 10.0 mi West 5.8 mph - N/A   Light Drizzle
2:14 PM 59.0 °F 57.0 °F 93% 30.05 in 10.0 mi West 4.6 mph - N/A   Light Drizzle
2:35 PM 59.2 °F 57.7 °F 95% 30.05 in 10.0 mi WSW 4.6 mph - N/A Rain Light Rain
2:54 PM 59.0 °F 57.4 °F 94% 30.05 in 10.0 mi West 4.6 mph - N/A   Light Drizzle
3:15 PM 58.1 °F 56.5 °F 94% 30.06 in 5.0 mi West 9.2 mph - N/A   Overcast
3:34 PM 57.6 °F 56.3 °F 96% 30.06 in 4.0 mi West 6.9 mph - N/A Rain Light Rain
3:54 PM 57.6 °F 57.0 °F 98% 30.05 in 7.0 mi Calm Calm - N/A   Overcast
4:15 PM 59.5 °F 57.0 °F 91% 30.05 in 10.0 mi West 12.7 mph - N/A   Overcast
4:34 PM 60.4 °F 57.2 °F 89% 30.05 in 10.0 mi West 12.7 mph - N/A   Overcast
4:55 PM 60.3 °F 56.5 °F 87% 30.06 in 10.0 mi West 10.4 mph - N/A   Overcast
5:15 PM 59.2 °F 56.7 °F 91% 30.06 in 10.0 mi NW 10.4 mph 17.3 mph N/A Rain Light Rain
5:34 PM 59.9 °F 57.2 °F 91% 30.07 in 10.0 mi NNW 12.7 mph 16.1 mph N/A   Overcast
5:55 PM 57.9 °F 56.3 °F 94% 30.08 in 10.0 mi North 19.6 mph 28.8 mph N/A   Overcast
6:15 PM 56.1 °F 55.0 °F 96% 30.10 in 4.0 mi North 17.3 mph 26.5 mph N/A Rain Light Rain
6:34 PM 55.6 °F 53.8 °F 94% 30.11 in 10.0 mi NNW 16.1 mph 24.2 mph N/A   Overcast
6:55 PM 55.0 °F 52.7 °F 92% 30.12 in 10.0 mi North 17.3 mph 27.6 mph N/A   Overcast
7:14 PM 55.0 °F 52.0 °F 89% 30.13 in 10.0 mi North 12.7 mph - N/A   Overcast
7:35 PM 54.7 °F 51.4 °F 89% 30.13 in 10.0 mi NNW 16.1 mph 24.2 mph N/A   Overcast
7:55 PM 54.5 °F 50.9 °F 88% 30.14 in 10.0 mi North 19.6 mph 25.3 mph N/A   Overcast
8:14 PM 54.3 °F 50.5 °F 87% 30.15 in 10.0 mi NNW 16.1 mph 24.2 mph N/A   Overcast
8:35 PM 54.1 °F 50.4 °F 87% 30.17 in 10.0 mi North 19.6 mph 25.3 mph N/A   Overcast
8:55 PM 54.0 °F 49.8 °F 86% 30.18 in 10.0 mi North 13.8 mph 21.9 mph N/A   Overcast
9:14 PM 53.8 °F 49.6 °F 86% 30.18 in 10.0 mi North 15.0 mph 21.9 mph N/A   Overcast
9:35 PM 53.8 °F 49.1 °F 84% 30.19 in 10.0 mi North 17.3 mph 24.2 mph N/A   Overcast
9:55 PM 53.6 °F 47.3 °F 79% 30.20 in 10.0 mi North 13.8 mph 25.3 mph N/A   Overcast
10:14 PM 53.6 °F 46.4 °F 77% 30.20 in 10.0 mi North 16.1 mph 24.2 mph N/A   Overcast
10:35 PM 53.4 °F 46.6 °F 78% 30.21 in 10.0 mi North 11.5 mph 19.6 mph N/A   Overcast
10:55 PM 53.4 °F 46.2 °F 77% 30.22 in 10.0 mi NNW 9.2 mph 18.4 mph N/A   Overcast
11:14 PM 53.2 °F 46.2 °F 77% 30.22 in 10.0 mi North 11.5 mph 16.1 mph N/A   Overcast
11:35 PM 53.1 °F 45.7 °F 76% 30.23 in 10.0 mi North 12.7 mph 20.7 mph N/A   Overcast
11:54 PM 53.2 °F 45.1 °F 74% 30.23 in 10.0 mi North 12.7 mph 20.7 mph N/A   Overcast